Hourly Weather Bolshie Pustynki

Today, 17 June, Thursday

Time Temperature Precipitation Wind Pressure Humidity
00:00 +12°C° 0 mm 1 mps 759 mmHg 67%
01:00 +12°C° 0 mm 1 mps 759 mmHg 69%
02:00 +12°C° 0 mm 1 mps 759 mmHg 71%
03:00 +12°C° 0 mm 1 mps 760 mmHg 72%
04:00 +12°C° 0 mm 1 mps 760 mmHg 74%
05:00 +13°C° 0 mm 1 mps 760 mmHg 75%
06:00 +15°C° 0 mm 1 mps 760 mmHg 68%
07:00 +18°C° 0 mm 1 mps 761 mmHg 61%
08:00 +20°C° 0 mm 1 mps 761 mmHg 55%
09:00 +22°C° 0 mm 1 mps 761 mmHg 50%
10:00 +23°C° 0 mm 1 mps 761 mmHg 46%
11:00 +25°C° 0 mm 1 mps 761 mmHg 42%
12:00 +25°C° 0 mm 1 mps 761 mmHg 40%
13:00 +26°C° 0 mm 1 mps 761 mmHg 39%
14:00 +26°C° 0 mm 1 mps 761 mmHg 38%
15:00 +26°C° 0 mm 1 mps 761 mmHg 39%
16:00 +26°C° 0 mm 1 mps 761 mmHg 41%
17:00 +26°C° 0 mm 1 mps 761 mmHg 43%
18:00 +24°C° 0 mm 1 mps 761 mmHg 51%
19:00 +22°C° 0 mm 1 mps 761 mmHg 59%
20:00 +20°C° 0 mm 1 mps 761 mmHg 67%
21:00 +19°C° 0 mm 1 mps 761 mmHg 68%
22:00 +18°C° 0 mm 1 mps 761 mmHg 68%
23:00 +16°C° 0 mm 2 mps 761 mmHg 69%

Tomorrow, 18 June, Friday

Time Temperature Precipitation Wind Pressure Humidity
00:00 +16°C° 0 mm 2 mps 761 mmHg 72%
01:00 +15°C° 0 mm 2 mps 761 mmHg 75%
02:00 +15°C° 0 mm 2 mps 761 mmHg 78%
03:00 +15°C° 0 mm 2 mps 761 mmHg 79%
04:00 +15°C° 0 mm 2 mps 762 mmHg 80%
05:00 +16°C° 0 mm 1 mps 762 mmHg 81%
06:00 +18°C° 0 mm 2 mps 762 mmHg 74%
07:00 +20°C° 0 mm 2 mps 762 mmHg 66%
08:00 +22°C° 0 mm 3 mps 762 mmHg 58%
09:00 +24°C° 0 mm 3 mps 761 mmHg 54%
10:00 +26°C° 0 mm 3 mps 761 mmHg 49%
11:00 +27°C° 0 mm 3 mps 761 mmHg 45%
12:00 +28°C° 0 mm 3 mps 761 mmHg 43%
13:00 +28°C° 0 mm 3 mps 760 mmHg 41%
14:00 +29°C° 0 mm 3 mps 760 mmHg 39%
15:00 +29°C° 0 mm 3 mps 760 mmHg 41%
16:00 +29°C° 0 mm 3 mps 760 mmHg 43%
17:00 +29°C° 0 mm 3 mps 759 mmHg 45%
18:00 +27°C° 0 mm 2 mps 759 mmHg 55%
19:00 +25°C° 0 mm 2 mps 759 mmHg 64%
20:00 +23°C° 0 mm 2 mps 759 mmHg 73%
21:00 +20°C° 0 mm 2 mps 760 mmHg 75%
22:00 +19°C° 0 mm 2 mps 760 mmHg 77%
23:00 +18°C° 0 mm 2 mps 760 mmHg 79%

Day after tomorrow, 19 June, Saturday

Time Temperature Precipitation Wind Pressure Humidity
00:00 +17°C° 0 mm 2 mps 760 mmHg 83%
01:00 +17°C° 0 mm 2 mps 760 mmHg 87%
02:00 +16°C° 0 mm 2 mps 760 mmHg 91%
03:00 +16°C° 0 mm 2 mps 760 mmHg 90%
04:00 +17°C° 0 mm 2 mps 760 mmHg 89%
05:00 +17°C° 0 mm 2 mps 760 mmHg 88%
06:00 +19°C° 0 mm 2 mps 760 mmHg 80%
07:00 +21°C° 0 mm 3 mps 760 mmHg 72%
08:00 +24°C° 0 mm 3 mps 760 mmHg 63%
09:00 +25°C° 0 mm 3 mps 760 mmHg 57%
10:00 +27°C° 0 mm 3 mps 760 mmHg 51%
11:00 +28°C° 0 mm 3 mps 760 mmHg 45%
12:00 +29°C° 0 mm 3 mps 759 mmHg 43%
13:00 +29°C° 0 mm 3 mps 759 mmHg 41%
14:00 +30°C° 0 mm 3 mps 759 mmHg 38%
15:00 +30°C° 0 mm 3 mps 758 mmHg 40%
16:00 +30°C° 0 mm 3 mps 758 mmHg 43%
17:00 +30°C° 0 mm 2 mps 758 mmHg 45%
18:00 +28°C° 0 mm 2 mps 758 mmHg 54%
19:00 +26°C° 0 mm 2 mps 758 mmHg 64%
20:00 +24°C° 0 mm 2 mps 758 mmHg 73%
21:00 +21°C° 0 mm 2 mps 758 mmHg 76%
22:00 +20°C° 0 mm 2 mps 758 mmHg 78%
23:00 +19°C° 0 mm 2 mps 758 mmHg 80%

20 June, Sunday

Time Temperature Precipitation Wind Pressure Humidity
00:00 +18°C° 0 mm 2 mps 758 mmHg 84%
01:00 +18°C° 0 mm 2 mps 758 mmHg 89%
02:00 +17°C° 0 mm 2 mps 758 mmHg 93%
03:00 +18°C° 0 mm 2 mps 758 mmHg 91%
04:00 +18°C° 0 mm 2 mps 758 mmHg 90%
05:00 +19°C° 0 mm 2 mps 758 mmHg 89%
06:00 +20°C° 0 mm 3 mps 758 mmHg 81%
07:00 +22°C° 0 mm 3 mps 758 mmHg 72%
08:00 +25°C° 0 mm 3 mps 758 mmHg 64%
09:00 +26°C° 0 mm 4 mps 757 mmHg 59%
10:00 +28°C° 0 mm 4 mps 757 mmHg 54%
11:00 +29°C° 0 mm 4 mps 757 mmHg 48%
12:00 +30°C° 0 mm 4 mps 757 mmHg 46%
13:00 +30°C° 0 mm 4 mps 757 mmHg 43%
14:00 +32°C° 0 mm 4 mps 756 mmHg 41%
15:00 +31°C° 0 mm 3 mps 756 mmHg 44%
16:00 +30°C° 0 mm 3 mps 756 mmHg 46%
17:00 +30°C° 0 mm 3 mps 756 mmHg 49%
18:00 +28°C° 0 mm 3 mps 756 mmHg 58%
19:00 +27°C° 0 mm 2 mps 756 mmHg 67%
20:00 +25°C° 0 mm 2 mps 756 mmHg 76%
21:00 +24°C° 0 mm 2 mps 756 mmHg 81%
22:00 +21°C° 0 mm 2 mps 756 mmHg 86%
23:00 +20°C° 0 mm 2 mps 756 mmHg 92%

21 June, Monday

Time Temperature Precipitation Wind Pressure Humidity
00:00 +20°C° 0 mm 2 mps 756 mmHg 93%
01:00 +19°C° 0 mm 2 mps 756 mmHg 95%
02:00 +19°C° 0 mm 2 mps 757 mmHg 96%
03:00 +19°C° 0 mm 2 mps 757 mmHg 95%
04:00 +19°C° 0 mm 2 mps 757 mmHg 93%
05:00 +21°C° 0 mm 1 mps 757 mmHg 92%
06:00 +23°C° 0 mm 1 mps 757 mmHg 83%
07:00 +25°C° 0 mm 2 mps 757 mmHg 75%
08:00 +26°C° 0 mm 2 mps 757 mmHg 67%
09:00 +28°C° 0 mm 2 mps 757 mmHg 62%
10:00 +29°C° 0 mm 2 mps 757 mmHg 56%
11:00 +30°C° 0 mm 2 mps 757 mmHg 50%
12:00 +31°C° 0 mm 2 mps 757 mmHg 49%
13:00 +31°C° 0 mm 1 mps 756 mmHg 47%
14:00 +32°C° 0 mm 1 mps 756 mmHg 46%
15:00 +31°C° 0 mm 1 mps 756 mmHg 50%
16:00 +31°C° 0 mm 1 mps 756 mmHg 54%
17:00 +30°C° 0 mm 1 mps 756 mmHg 59%
18:00 +29°C° 0 mm 1 mps 756 mmHg 64%
19:00 +28°C° 0 mm 1 mps 756 mmHg 69%
20:00 +26°C° 0 mm 2 mps 756 mmHg 74%
21:00 +26°C° 0 mm 2 mps 756 mmHg 75%
22:00 +25°C° 0 mm 2 mps 756 mmHg 77%
23:00 +24°C° 0 mm 2 mps 756 mmHg 78%

22 June, Tuesday

Time Temperature Precipitation Wind Pressure Humidity
00:00 +23°C° 0 mm 2 mps 757 mmHg 80%
01:00 +21°C° 0 mm 2 mps 757 mmHg 82%
02:00 +20°C° 0 mm 2 mps 757 mmHg 84%
03:00 +20°C° 0 mm 2 mps 757 mmHg 84%
04:00 +20°C° 0 mm 2 mps 757 mmHg 83%
05:00 +21°C° 0 mm 1 mps 757 mmHg 83%
06:00 +24°C° 0 mm 2 mps 757 mmHg 75%
07:00 +26°C° 0 mm 2 mps 757 mmHg 67%
08:00 +28°C° 0 mm 2 mps 757 mmHg 59%
09:00 +29°C° 0 mm 3 mps 757 mmHg 54%
10:00 +31°C° 0 mm 3 mps 757 mmHg 48%
11:00 +33°C° 0 mm 4 mps 757 mmHg 42%
12:00 +34°C° 0 mm 4 mps 757 mmHg 40%
13:00 +35°C° 0 mm 3 mps 757 mmHg 38%
14:00 +35°C° 0 mm 3 mps 757 mmHg 36%
15:00 +35°C° 0 mm 3 mps 757 mmHg 38%
16:00 +35°C° 0 mm 3 mps 756 mmHg 41%
17:00 +34°C° 0 mm 3 mps 756 mmHg 44%
18:00 +31°C° 0 mm 3 mps 756 mmHg 52%
19:00 +29°C° 0 mm 2 mps 756 mmHg 61%
20:00 +27°C° 0 mm 2 mps 756 mmHg 69%
21:00 +26°C° 0 mm 2 mps 756 mmHg 70%
22:00 +25°C° 0 mm 2 mps 757 mmHg 71%
23:00 +24°C° 0 mm 2 mps 757 mmHg 72%
Show more